Find Palapa B2P

NORAD ID: 17706 Int'l Des: 1987-029 Owner: PER Country: ID operational
HEOCIRCULAR

实时位置

正在加载3D地球...

关于 Palapa B2P

正在加载描述...

即将过境

Passes for default location (London). Set your location on the main map for personalized predictions.

高度历史

Loading altitude history...

两行轨道根数

1 17706U 87029A 26134.25375515 .00000100 00000-0 00000-0 0 9997
2 17706 14.3848 348.4417 0003169 39.7200 326.2309 0.99911550 42192
Epoch: May 14, 2026 • Age: 11 hours

当前状态

高度 35897.0 km
速度 3.07 km/s
星下点 0.93°N, 30.57°E
发射日期 Mar 20, 1987
运行时间 39.1 years
类型 other

技术详情

分类 Payload
质量 660.00 kg
干质量 500.00 kg
总质量 1203.00 kg
长度 6.90 m
直径 2.20 m
跨度 6.90 m
形状 Cyl
制造商 HSES
平台类型 HS-376
阶段状态 Unknown Active Status
所有者/国家 PER/ID

Most Searched